Location: Newark
(27.9675°N, 86.8869°E)
Time: 05:01:05
(UTC+00:00)

Altair - Pass Details

Date: 01 November 2019
Orbit: 1502 x 1682 km, 47.2° (Epoch: 18 November)

Event Time Altitude Azimuth Distance (km) Brightness Sun altitude
Rises 07:44:53 0° 313° (NW) 4,778 10.0 40.1°
Reaches altitude 10° 07:48:05 10° 318° (NW) 3,817 9.6 39.7°
Maximum altitude 07:57:35 53° 34° (NE) 1,959 8.2 38.4°
Drops below altitude 10° 08:07:21 10° 109° (ESE) 3,925 9.5 37.1°
Sets 08:10:40 0° 114° (ESE) 4,920 10.0 36.6°
